[[{"header":{"parameterUnit":"m.s-1","parameterCategory":1,"la1":30.2992,"la2":30.254,"lo1":-89.0895,"lo2":-89.0443,"dy":0.0025,"dx":0.0025,"nx":19,"ny":19,"refTime":"2026-04-29T09:00:00:Z","depth":0,"parameterNumber":2,"parameterNumberName":"U-component_of_WINDS"},"data":[0,0,0,-3.5041,-3.504,-3.4969,-3.4969,-3.4878,-3.4877,0,0,0,0,0,0,0,0,0,0,0,-3.5069,-3.5068,-3.5041,-3.504,-3.4969,-3.4969,-3.4878,-3.4877,0,0,0,0,0,0,0,0,0,0,0,-3.5069,-3.5069,-3.5068,-3.504,-3.4969,-3.4969,-3.4878,-3.493,0,0,0,0,0,0,0,0,0,0,-3.4998,-3.5032,-3.5069,-3.5068,-3.5039,-3.4969,-3.4969,-3.4933,-3.4927,-3.4912,0,-3.4906,0,-3.489,-3.4872,-3.4871,0,0,0,-3.5034,-3.5037,-3.5012,-3.5068,-3.5039,-3.497,-3.4999,-3.4929,-3.4923,-3.4904,-3.4904,-3.4901,-3.4889,-3.4871,-3.4871,-3.4811,-3.4811,0,0,-3.5037,-3.5059,-3.5017,-3.5008,-3.5027,-3.5002,-3.4997,-3.4925,-3.4925,-3.4904,-3.4899,-3.4887,-3.4871,-3.487,-3.4811,-3.4811,0,0,0,-3.5053,-3.5062,-3.5038,-3.5012,-3.5,-3.5,-3.4995,-3.4928,-3.4919,-3.4898,-3.4886,-3.487,-3.4869,-3.4811,-3.4811,-3.4832,0,0,0,-3.5055,-3.5071,-3.5041,-3.5053,-3.5002,-3.4965,-3.4999,-3.4924,-3.4915,-3.4887,-3.487,-3.4868,-3.4811,-3.4811,-3.4831,-3.4837,0,0,0,-3.5071,-3.5073,-3.5065,-3.5054,-3.5025,-3.4966,-3.4952,-3.4922,-3.4909,-3.4871,-3.4868,-3.4811,-3.4811,-3.4831,-3.4836,-3.4824,0,0,0,-3.5093,-3.5087,-3.5066,-3.5052,-3.5026,-3.4981,-3.4952,-3.4917,-3.4888,-3.487,-3.4811,-3.4811,-3.4831,-3.4836,-3.4824,-3.4816,-3.4816,0,0,-3.5096,-3.5088,-3.5078,-3.5057,-3.5021,-3.499,-3.4953,-3.4906,-3.4881,-3.4834,-3.4832,-3.4831,-3.4836,-3.4824,-3.4812,-3.4812,0,0,0,-3.5085,-3.5078,-3.5064,-3.5038,-3.5002,-3.4967,-3.4923,-3.4902,-3.4861,-3.4864,-3.4824,-3.4826,-3.4818,-3.4813,-3.4813,-3.4801,-3.4811,-3.4811,-3.4811,-3.5121,-3.5089,-3.5067,-3.5025,-3.4998,-3.4948,-3.4921,-3.4884,-3.4862,-3.4852,-3.4838,-3.4835,-3.483,-3.483,-3.4818,-3.4833,-3.4833,-3.4833,-3.4833,-3.5119,-3.5101,-3.5065,-3.5032,-3.4995,-3.4963,-3.491,-3.4893,-3.4853,-3.4846,-3.4836,-3.4828,-3.4832,-3.4819,-3.4835,-3.4834,-3.4834,-3.4834,-3.4834,-3.5137,-3.5122,-3.5099,-3.5051,-3.5016,-3.497,-3.4932,-3.49,-3.4869,-3.486,-3.4836,-3.4836,-3.4827,-3.4851,-3.4851,-3.4851,-3.4851,-3.4851,-3.4851,-3.5164,-3.5136,-3.5112,-3.5066,-3.504,-3.5001,-3.4943,-3.4915,-3.4873,-3.4851,-3.4851,-3.4823,-3.484,-3.4843,-3.4851,-3.4851,-3.4851,-3.4851,-3.4851,-3.5171,-3.5162,-3.5124,-3.5098,-3.5036,-3.4998,-3.4956,-3.4897,-3.4868,-3.4848,-3.482,-3.4839,-3.4827,-3.4826,-3.4828,-3.4832,-3.4832,-3.4832,-3.4832,-3.5184,-3.5174,-3.5123,-3.5081,-3.5036,-3.4991,-3.4937,-3.4887,-3.4834,-3.4811,-3.4805,-3.4805,-3.4807,-3.4793,-3.4794,-3.4794,-3.4789,-3.4789,-3.4789,-3.5183,-3.5166,-3.5132,-3.5083,-3.503,-3.4981,-3.4927,-3.4873,-3.481,-3.4786,-3.479,-3.4792,-3.4792,-3.4795,-3.4773,-3.4775,-3.4776,0,0]},{"header":{"parameterUnit":"m.s-1","parameterCategory":1,"la1":30.2992,"la2":30.254,"lo1":-89.0895,"lo2":-89.0443,"dy":0.0025,"dx":0.0025,"nx":19,"ny":19,"refTime":"2026-04-29T09:00:00:Z","depth":0,"parameterNumber":3,"parameterNumberName":"V-component_of_WINDS"},"data":[0,0,0,-5.5323,-5.5325,-5.5388,-5.5388,-5.5495,-5.5496,0,0,0,0,0,0,0,0,0,0,0,-5.532,-5.5322,-5.5323,-5.5325,-5.5388,-5.5388,-5.5495,-5.5496,0,0,0,0,0,0,0,0,0,0,0,-5.532,-5.5321,-5.5323,-5.5325,-5.5388,-5.5388,-5.5494,-5.5437,0,0,0,0,0,0,0,0,0,0,-5.5371,-5.5385,-5.5321,-5.5323,-5.5326,-5.5388,-5.5388,-5.5434,-5.5441,-5.5477,0,-5.5514,0,-5.5507,-5.5505,-5.5505,0,0,0,-5.5313,-5.538,-5.5382,-5.5323,-5.5326,-5.5388,-5.5356,-5.5438,-5.5445,-5.5486,-5.5516,-5.5519,-5.5509,-5.5506,-5.5506,-5.5754,-5.5756,0,0,-5.5309,-5.5341,-5.5377,-5.5388,-5.538,-5.5354,-5.5358,-5.5442,-5.5476,-5.5516,-5.5521,-5.5511,-5.5507,-5.5508,-5.5753,-5.5755,0,0,0,-5.5307,-5.5339,-5.5338,-5.5384,-5.5393,-5.5356,-5.5361,-5.5472,-5.5469,-5.5522,-5.5512,-5.5507,-5.5509,-5.5751,-5.5753,-5.5867,0,0,0,-5.5305,-5.5338,-5.5337,-5.5357,-5.5392,-5.5434,-5.539,-5.5464,-5.5472,-5.5511,-5.5507,-5.551,-5.5749,-5.5752,-5.586,-5.5916,0,0,0,-5.5311,-5.5338,-5.5353,-5.5359,-5.5387,-5.5432,-5.5433,-5.5465,-5.5467,-5.5505,-5.5511,-5.5748,-5.5752,-5.5853,-5.5905,-5.5988,0,0,0,-5.5327,-5.5456,-5.5355,-5.5495,-5.5387,-5.5502,-5.5432,-5.5517,-5.5564,-5.5508,-5.5749,-5.5753,-5.5851,-5.5899,-5.5981,-5.6063,-5.61,0,0,-5.5507,-5.5478,-5.5558,-5.547,-5.561,-5.549,-5.5647,-5.5661,-5.5637,-5.5716,-5.5722,-5.5862,-5.5904,-5.5987,-5.63,-5.633,0,0,0,-5.5625,-5.5683,-5.5713,-5.5758,-5.5771,-5.5786,-5.5772,-5.5777,-5.5842,-5.5684,-5.5914,-5.5939,-5.5986,-5.6023,-5.6048,-5.6085,-5.5772,-5.5772,-5.5771,-5.5927,-5.5886,-5.6013,-5.598,-5.6025,-5.6007,-5.604,-5.6042,-5.5991,-5.6046,-5.6069,-5.6264,-5.6309,-5.6328,-5.6367,-5.611,-5.6111,-5.6111,-5.6111,-5.6185,-5.6259,-5.6183,-5.628,-5.6236,-5.6317,-5.6304,-5.6264,-5.6332,-5.6244,-5.6284,-5.619,-5.6362,-5.6394,-5.612,-5.6118,-5.6117,-5.6116,-5.6116,-5.6377,-5.6405,-5.6407,-5.6465,-5.6514,-5.6476,-5.6543,-5.6502,-5.6463,-5.6502,-5.652,-5.6518,-5.6509,-5.6514,-5.6515,-5.6515,-5.6516,-5.6516,-5.6517,-5.6575,-5.6573,-5.6634,-5.6656,-5.6677,-5.67,-5.6681,-5.6701,-5.6713,-5.6677,-5.6677,-5.6618,-5.6387,-5.6328,-5.6527,-5.6525,-5.6524,-5.6523,-5.6522,-5.6851,-5.678,-5.6876,-5.6897,-5.6916,-5.6966,-5.691,-5.6954,-5.6964,-5.6998,-5.6931,-5.6767,-5.6735,-5.6715,-5.6666,-5.694,-5.694,-5.694,-5.694,-5.7011,-5.699,-5.7075,-5.7111,-5.7141,-5.71,-5.7206,-5.7192,-5.7167,-5.717,-5.7125,-5.7057,-5.7038,-5.7017,-5.699,-5.6944,-5.7283,-5.7283,-5.7283,-5.7177,-5.7156,-5.7255,-5.7227,-5.7238,-5.7248,-5.7346,-5.7389,-5.7346,-5.7296,-5.7171,-5.7157,-5.7047,-5.7014,-5.6961,-5.692,-5.6834,0,0]}]]